Folgueroles





Hora UTC 21:15
Temperatura 4.6 ºC
Humitat 84.0 %
Pressió 1005.6 hPa
Pluja 0.0 mm
Velocitat vent 0.0 km/h
Direcció vent W

Dades diàries 2019-11-15



Hora UTC (hivern +1h; estiu +2h)
Temperatura (ºC) Humitat (%) Pressió (hPa) Velocitat vent (km/h) Precipitació (mm)
Hora UTC Aire Humitat Pressió Vel. Dir. Vel. Max Dir. Intent. màx 5 min.
00:05 1.8 91.0 1000.1 0.0 SSE 0.0 0.0
00:10 1.7 91.0 1000.1 0.0 SSE 1.6 0.0
00:15 1.7 91.0 1000.1 0.0 SSE 0.0 0.0
00:20 1.7 91.0 1000.2 0.0 SSE 0.0 0.0
00:25 1.6 91.0 1000.3 0.0 SSE 0.0 0.0
00:30 1.6 91.0 1000.3 0.0 SSE 0.0 0.0
00:35 1.6 91.0 1000.2 0.0 SSE 0.0 0.0
00:40 1.6 91.0 1000.2 0.0 SSE 0.0 0.0
00:45 1.5 91.0 1000.3 0.0 SSE 0.0 0.0
00:50 1.4 91.0 1000.4 0.0 SSE 3.2 0.0
00:55 1.4 91.0 1000.3 0.0 E 4.8 0.0
01:00 1.3 91.0 1000.3 0.0 E 3.2 0.0
01:05 1.3 91.0 1000.4 0.0 E 0.0 0.0
01:10 1.2 92.0 1000.3 0.0 E 0.0 0.0
01:15 1.2 92.0 1000.5 0.0 E 0.0 0.0
01:20 1.1 92.0 1000.4 0.0 E 0.0 0.0
01:25 1.1 92.0 1000.5 0.0 E 0.0 0.0
01:30 1.1 92.0 1000.5 0.0 E 0.0 0.0
01:35 0.9 91.0 1000.6 0.0 E 0.0 0.0
01:40 0.9 91.0 1000.7 0.0 E 0.0 0.0
01:45 0.8 92.0 1000.7 0.0 E 0.0 0.0
01:50 0.8 92.0 1000.8 0.0 E 0.0 0.0
01:55 0.7 92.0 1000.7 0.0 E 0.0 0.0
02:00 0.7 92.0 1000.7 0.0 E 0.0 0.0
02:05 0.7 92.0 1000.8 0.0 E 0.0 0.0
02:10 0.6 92.0 1000.7 0.0 E 0.0 0.0
02:15 0.6 92.0 1000.7 0.0 E 0.0 0.0
02:20 0.6 93.0 1000.6 0.0 E 0.0 0.0
02:25 0.6 93.0 1000.6 0.0 E 1.6 0.0
02:30 0.6 93.0 1000.8 0.0 E 0.0 0.0
02:35 0.6 93.0 1000.7 0.0 E 0.0 0.0
02:40 0.6 93.0 1000.7 0.0 E 0.0 0.0
02:45 0.6 93.0 1000.7 0.0 E 0.0 0.0
02:50 0.6 93.0 1000.8 0.0 E 0.0 0.0
02:55 0.6 93.0 1000.8 0.0 E 0.0 0.0
03:00 0.6 93.0 1000.8 0.0 E 0.0 0.0
03:05 0.5 93.0 1000.8 0.0 E 0.0 0.0
03:10 0.5 93.0 1000.7 0.0 E 0.0 0.0
03:15 0.5 93.0 1000.8 0.0 E 1.6 0.0
03:20 0.4 93.0 1000.8 0.0 E 1.6 0.0
03:25 0.4 93.0 1000.8 0.0 E 0.0 0.0
03:30 0.4 93.0 1000.8 0.0 E 1.6 0.0
03:35 0.4 93.0 1000.7 0.0 E 0.0 0.0
03:40 0.4 93.0 1000.8 0.0 E 0.0 0.0
03:45 0.4 93.0 1000.8 0.0 E 0.0 0.0
03:50 0.4 93.0 1000.8 0.0 E 0.0 0.0
03:55 0.3 93.0 1000.9 0.0 E 0.0 0.0
04:00 0.4 93.0 1000.9 0.0 E 0.0 0.0
04:05 0.4 93.0 1000.9 0.0 E 0.0 0.0
04:10 0.4 93.0 1001.0 0.0 E 1.6 0.0
04:15 0.4 93.0 1001.0 0.0 E 1.6 0.0
04:20 0.4 93.0 1000.9 0.0 E 0.0 0.0
04:25 0.4 93.0 1000.9 0.0 E 1.6 0.0
04:30 0.4 93.0 1001.1 1.6 E 1.6 0.0
04:35 0.3 93.0 1001.0 0.0 E 3.2 0.0
04:40 0.3 93.0 1001.1 0.0 E 3.2 0.0
04:45 0.2 93.0 1000.8 0.0 E 0.0 0.0
04:50 0.2 93.0 1001.0 0.0 E 0.0 0.0
04:55 0.2 93.0 1001.0 0.0 E 0.0 0.0
05:00 0.1 93.0 1001.0 0.0 E 0.0 0.0
05:05 0.0 93.0 1001.0 0.0 E 0.0 0.0
05:10 -0.1 93.0 1000.9 0.0 E 0.0 0.0
05:15 -0.1 93.0 1001.0 0.0 E 0.0 0.0
05:20 -0.1 94.0 1001.1 0.0 E 0.0 0.0
05:25 -0.1 94.0 1001.2 0.0 E 0.0 0.0
05:30 0.0 94.0 1001.1 0.0 E 0.0 0.0
05:35 0.1 94.0 1001.1 0.0 E 0.0 0.0
05:40 0.3 95.0 1001.2 0.0 E 0.0 0.0
05:45 0.4 95.0 1001.2 0.0 E 0.0 0.0
05:50 0.4 94.0 1001.2 0.0 E 0.0 0.0
05:55 0.4 94.0 1001.2 0.0 E 0.0 0.0
06:00 0.4 94.0 1001.2 0.0 E 0.0 0.0
06:05 0.4 94.0 1001.3 0.0 E 0.0 0.0
06:10 0.4 95.0 1001.3 0.0 E 0.0 0.0
06:15 0.4 94.0 1001.3 0.0 E 0.0 0.0
06:20 0.4 95.0 1001.4 0.0 E 0.0 0.0
06:25 0.4 95.0 1001.5 0.0 E 0.0 0.0
06:30 0.3 95.0 1001.5 0.0 E 0.0 0.0
06:35 0.3 95.0 1001.5 0.0 E 0.0 0.0
06:40 0.3 95.0 1001.5 0.0 E 0.0 0.0
06:45 0.3 95.0 1001.6 0.0 E 0.0 0.0
06:50 0.3 95.0 1001.6 0.0 E 0.0 0.0
06:55 0.3 95.0 1001.7 0.0 E 0.0 0.0
07:00 0.3 95.0 1001.8 0.0 E 0.0 0.0
07:05 0.3 95.0 1001.8 0.0 E 0.0 0.0
07:10 0.4 95.0 1002.0 0.0 E 0.0 0.0
07:15 0.5 95.0 1002.1 0.0 E 0.0 0.0
07:20 0.6 95.0 1002.2 0.0 E 0.0 0.0
07:25 0.6 95.0 1002.3 0.0 E 0.0 0.0
07:30 0.6 95.0 1002.4 0.0 E 1.6 0.0
07:35 0.6 95.0 1002.5 0.0 E 1.6 0.0
07:40 0.6 95.0 1002.6 0.0 E 1.6 0.0
07:45 0.6 95.0 1002.6 0.0 E 0.0 0.0
07:50 0.7 95.0 1002.7 1.6 E 3.2 0.0
07:55 0.7 95.0 1002.6 0.0 E 3.2 0.0
08:00 0.6 95.0 1002.5 0.0 E 1.6 0.0
08:05 0.7 95.0 1002.6 0.0 E 1.6 0.0
08:10 0.8 95.0 1002.7 0.0 E 1.6 0.0
08:15 0.8 95.0 1002.5 0.0 E 1.6 0.0
08:20 0.8 95.0 1002.5 1.6 E 1.6 0.0
08:25 0.7 95.0 1002.6 0.0 E 1.6 0.0
08:30 0.7 95.0 1002.7 0.0 ESE 1.6 0.0
08:35 0.7 95.0 1002.7 0.0 ESE 1.6 0.0
08:40 0.8 95.0 1002.8 0.0 W 3.2 0.0
08:45 0.8 95.0 1002.7 0.0 W 3.2 0.0
08:50 0.8 95.0 1002.8 1.6 NNW 3.2 0.0
08:55 0.8 95.0 1002.9 1.6 NNW 3.2 0.0
09:00 0.8 95.0 1002.8 0.0 NNW 3.2 0.0
09:05 0.8 95.0 1002.9 1.6 NNW 3.2 0.0
09:10 0.9 95.0 1002.9 0.0 NNW 3.2 0.0
09:15 0.9 95.0 1002.9 0.0 NNW 0.0 0.0
09:20 0.9 95.0 1002.8 0.0 NNW 1.6 0.0
09:25 1.0 95.0 1002.9 1.6 NNW 3.2 0.0
09:30 1.0 95.0 1002.8 0.0 NNE 4.8 0.0
09:35 0.9 95.0 1002.8 0.0 NNE 3.2 0.0
09:40 1.1 95.0 1002.8 0.0 NNE 1.6 0.0
09:45 1.2 96.0 1002.9 0.0 NNE 1.6 0.0
09:50 1.3 96.0 1002.9 0.0 NNW 3.2 0.0
09:55 1.4 95.0 1003.0 3.2 NNW 4.8 0.0
10:00 1.4 95.0 1003.0 0.0 NNW 3.2 0.0
10:05 1.5 95.0 1002.9 4.8 NNW 4.8 0.0
10:10 1.7 95.0 1002.9 0.0 N 6.4 0.0
10:15 1.8 95.0 1002.8 1.6 N 4.8 0.0
10:20 1.8 95.0 1002.8 0.0 NNE 4.8 0.0
10:25 2.0 95.0 1002.8 0.0 NNE 4.8 0.0
10:30 2.1 95.0 1002.6 0.0 NNE 4.8 0.0
10:35 2.2 95.0 1002.6 1.6 NNE 1.6 0.0
10:40 2.5 95.0 1002.5 0.0 NNE 3.2 0.0
10:45 2.7 95.0 1002.4 0.0 NNE 3.2 0.0
10:50 2.9 95.0 1002.3 1.6 NNE 4.8 0.0
10:55 3.1 95.0 1002.4 0.0 NNE 4.8 0.0
11:00 3.3 94.0 1002.3 1.6 NNE 4.8 0.0
11:05 3.6 94.0 1002.2 0.0 NNE 4.8 0.0
11:10 3.9 93.0 1002.1 0.0 NNW 3.2 0.0
11:15 4.2 92.0 1002.1 0.0 NNW 3.2 0.0
11:20 4.4 93.0 1002.0 0.0 NNW 3.2 0.0
11:25 4.8 91.0 1002.0 0.0 WNW 3.2 0.0
11:30 5.0 90.0 1002.0 3.2 WNW 9.7 0.0
11:35 5.1 88.0 1002.0 3.2 WNW 9.7 0.0
11:40 5.1 88.0 1001.9 0.0 W 6.4 0.0
11:45 5.1 87.0 1001.8 3.2 NW 6.4 0.0
11:50 5.2 87.0 1001.8 0.0 WNW 6.4 0.0
11:55 5.3 87.0 1001.7 0.0 WNW 1.6 0.0
12:00 5.4 86.0 1001.6 0.0 W 4.8 0.0
12:05 5.6 86.0 1001.5 0.0 WNW 3.2 0.0
12:10 5.7 85.0 1001.7 0.0 W 3.2 0.0
12:15 5.9 84.0 1001.5 0.0 WNW 6.4 0.0
12:20 6.1 84.0 1001.5 0.0 W 6.4 0.0
12:25 6.3 82.0 1001.4 1.6 SW 4.8 0.0
12:30 6.8 81.0 1001.5 3.2 W 4.8 0.0
12:35 6.9 80.0 1001.3 4.8 WNW 11.3 0.0
12:40 6.9 77.0 1001.3 4.8 WNW 8.0 0.0
12:45 6.9 76.0 1001.3 0.0 NNW 8.0 0.0
12:50 6.9 78.0 1001.2 0.0 NNW 3.2 0.0
12:55 6.8 77.0 1001.2 3.2 W 11.3 0.0
13:00 6.7 77.0 1001.3 1.6 E 17.7 0.0
13:05 6.8 76.0 1001.2 6.4 WNW 17.7 0.0
13:10 6.8 75.0 1001.2 3.2 WNW 17.7 0.0
13:15 6.8 75.0 1001.1 4.8 WNW 16.1 0.0
13:20 6.9 75.0 1001.1 0.0 WNW 16.1 0.0
13:25 7.0 74.0 1001.1 4.8 W 17.7 0.0
13:30 7.0 74.0 1001.0 4.8 W 17.7 0.0
13:35 7.1 72.0 1000.9 11.3 W 14.5 0.0
13:40 7.1 73.0 1001.0 3.2 SW 14.5 0.0
13:45 7.1 74.0 1000.9 0.0 NE 14.5 0.0
13:50 7.2 74.0 1001.0 6.4 WNW 12.9 0.0
13:55 7.2 73.0 1000.9 4.8 W 12.9 0.0
14:00 7.1 72.0 1001.0 1.6 W 17.7 0.0
14:05 7.0 72.0 1000.9 1.6 W 17.7 0.0
14:10 7.0 72.0 1000.9 1.6 NNW 17.7 0.0
14:15 6.9 71.0 1000.9 4.8 W 17.7 0.0
14:20 6.9 72.0 1000.9 9.7 W 16.1 0.0
14:25 6.9 73.0 1000.9 3.2 W 16.1 0.0
14:30 6.9 72.0 1001.0 0.0 W 20.9 0.0
14:35 6.9 72.0 1001.2 6.4 W 16.1 0.0
14:40 6.9 73.0 1001.2 1.6 W 16.1 0.0
14:45 6.9 72.0 1001.3 6.4 W 17.7 0.0
14:50 6.9 72.0 1001.4 1.6 W 17.7 0.0
14:55 6.8 73.0 1001.3 12.9 WSW 16.1 0.0
15:00 6.7 72.0 1001.4 0.0 WSW 14.5 0.0
15:05 6.7 73.0 1001.4 1.6 W 14.5 0.0
15:10 6.6 74.0 1001.4 4.8 W 14.5 0.0
15:15 6.5 74.0 1001.4 0.0 W 14.5 0.0
15:20 6.4 75.0 1001.4 0.0 W 9.7 0.0
15:25 6.4 75.0 1001.5 0.0 W 12.9 0.0
15:30 6.4 74.0 1001.5 9.7 W 12.9 0.0
15:35 6.4 74.0 1001.3 3.2 W 16.1 0.0
15:40 6.4 74.0 1001.4 3.2 W 16.1 0.0
15:45 6.4 74.0 1001.5 3.2 W 12.9 0.0
15:50 6.4 74.0 1001.6 1.6 W 14.5 0.0
15:55 6.3 75.0 1001.6 0.0 W 14.5 0.0
16:00 6.3 74.0 1001.6 0.0 W 8.0 0.0
16:05 6.2 74.0 1001.6 1.6 W 8.0 0.0
16:10 6.1 74.0 1001.6 0.0 W 6.4 0.0
16:15 6.0 75.0 1001.8 1.6 W 4.8 0.0
16:20 5.8 75.0 1001.8 0.0 W 4.8 0.0
16:25 5.8 77.0 1001.9 0.0 W 4.8 0.0
16:30 5.7 77.0 1001.8 3.2 W 6.4 0.0
16:35 5.5 77.0 1001.7 6.4 W 9.7 0.0
16:40 5.4 77.0 1001.8 9.7 W 12.9 0.0
16:45 5.3 78.0 1001.9 12.9 W 14.5 0.0
16:50 5.2 78.0 1002.0 0.0 WSW 14.5 0.0
16:55 5.2 79.0 1002.1 0.0 W 12.9 0.0
17:00 5.1 79.0 1002.2 0.0 W 6.4 0.0
17:05 4.9 80.0 1002.4 0.0 SW 4.8 0.0
17:10 4.9 80.0 1002.5 0.0 WSW 1.6 0.0
17:15 4.8 80.0 1002.6 1.6 W 4.8 0.0
17:20 4.7 81.0 1002.6 1.6 W 6.4 0.0
17:25 4.7 81.0 1002.6 11.3 W 12.9 0.0
17:30 4.7 82.0 1002.8 0.0 W 14.5 0.0
17:35 4.7 82.0 1002.8 0.0 WSW 14.5 0.0
17:40 4.7 81.0 1002.9 1.6 WNW 17.7 0.0
17:45 4.8 81.0 1003.0 0.0 WNW 17.7 0.0
17:50 4.8 82.0 1003.0 0.0 W 12.9 0.0
17:55 4.8 81.0 1003.2 1.6 W 9.7 0.0
18:00 4.8 82.0 1003.2 0.0 WNW 6.4 0.0
18:05 4.8 82.0 1003.3 0.0 WNW 11.3 0.0
18:10 4.8 82.0 1003.4 0.0 W 11.3 0.0
18:15 4.7 82.0 1003.4 0.0 W 8.0 0.0
18:20 4.7 82.0 1003.5 0.0 W 4.8 0.0
18:25 4.7 83.0 1003.5 0.0 W 1.6 0.0
18:30 4.7 83.0 1003.6 0.0 W 1.6 0.0
18:35 4.7 83.0 1003.7 0.0 W 0.0 0.0
18:40 4.6 83.0 1003.8 1.6 W 1.6 0.0
18:45 4.7 83.0 1003.9 0.0 W 3.2 0.0
18:50 4.7 83.0 1004.0 3.2 WNW 9.7 0.0
18:55 4.7 83.0 1004.0 0.0 WNW 9.7 0.0
19:00 4.7 83.0 1004.1 1.6 WNW 1.6 0.0
19:05 4.8 83.0 1004.1 1.6 WNW 3.2 0.0
19:10 4.8 83.0 1004.1 0.0 WNW 3.2 0.0
19:15 4.8 83.0 1004.1 0.0 WNW 4.8 0.0
19:20 4.8 83.0 1004.1 0.0 W 4.8 0.0
19:25 4.8 83.0 1004.1 0.0 WNW 3.2 0.0
19:30 4.8 83.0 1004.1 3.2 WNW 3.2 0.0
19:35 4.8 83.0 1004.1 0.0 WNW 3.2 0.0
19:40 4.8 83.0 1004.2 0.0 WNW 3.2 0.0
19:45 4.8 83.0 1004.2 0.0 WNW 3.2 0.0
19:50 4.8 83.0 1004.3 0.0 WNW 3.2 0.0
19:55 4.8 83.0 1004.3 0.0 WNW 0.0 0.0
20:00 4.8 83.0 1004.3 0.0 WNW 0.0 0.0
20:05 4.8 83.0 1004.5 0.0 WNW 1.6 0.0
20:10 4.8 83.0 1004.6 0.0 W 4.8 0.0
20:15 4.8 83.0 1004.6 0.0 W 4.8 0.0
20:20 4.8 83.0 1004.7 0.0 W 3.2 0.0
20:25 4.8 83.0 1004.8 0.0 W 3.2 0.0
20:30 4.8 83.0 1004.8 0.0 W 3.2 0.0
20:35 4.8 83.0 1004.9 0.0 W 3.2 0.0
20:40 4.8 83.0 1005.0 0.0 W 0.0 0.0
20:45 4.8 83.0 1005.0 0.0 W 0.0 0.0
20:50 4.8 83.0 1005.1 0.0 W 0.0 0.0
20:55 4.8 83.0 1005.2 0.0 W 0.0 0.0
21:00 4.7 83.0 1005.3 0.0 W 1.6 0.0
21:05 4.7 83.0 1005.4 0.0 W 1.6 0.0
21:10 4.6 83.0 1005.5 0.0 W 0.0 0.0
21:15 4.6 84.0 1005.6 0.0 W 1.6 0.0
Màxima 7.2 96.0 1005.6 12.9 W 20.9 0.0
Mínima -0.1 71.0 1000.1
Total 0.0